TIANMU-1 08

Last updated on Wed Nov 05 2025 00:02:22 GMT+0000 (Coordinated Universal Time)

1 57400U 23101B 25308.57106442 .00007754 00000+0 29301-3 0 9990 2 57400 97.2925 359.0785 0005296 201.6661 158.4355 15.27243891127321
UTC large
Height (km)
Speed (km/s)
/
Latitude / Longitude
Inclination (degrees)
Orbital Period (minutes)
Azimuth
Elevation
Range (km)
Doppler Factor

Next 0 passes for location: London (51.5072 / 0.1276)

Sorry there are no passes over London.